Погода в Великопетровке

Россия / Челябинская область     53°14′53″N   60°29′11″E
темп.,
°C
ветер,
м/с
пор.,
м/с
влажн.,
%
обл.,
%
осадки,
мм/ч
давл.,
гПа
погр.,
м
27 ноября, сб
сб2723:00−3юз917877 0.0 1028516
02:00−3зюз81688100 0.0 1029650
05:00−3зюз8168886 0.0 1029651
08:00−4юз8169011 0.0 1029493
11:00−4юз816885 0.0 1030460
14:00−3юз71585100 0.0 1030435
17:00−5юз614905 0.0 1032303
20:00−7юз612895 0.0 1032204
28 ноября, вс
вс2823:00−8юз512755 0.0 1033174
02:00−8юз613685 0.0 1033185
05:00−10юз512640 0.0 1033154
08:00−10юз511690 0.0 1033135
11:00−7юз51271100 0.0 1032227
14:00−5ююз51273100 0.0 1031320
17:00−5ююз41178100 0.0 1030281
20:00−6ююз41080100 0.0 1029229
29 ноября, пн
пн2923:00−6ююз4978100 0.0 1029211
02:00−7юз41078100 0.0 1028188
05:00−7юз41077100 0.0 1027164
08:00−8юз37785 0.0 1027104
11:00−5зюз37705 0.0 1027112
14:00−2зюз36725 0.0 1026142
17:00−6зюз35845 0.0 102647
20:00−6зюз348135 0.0 102649
30 ноября, вт
вт3023:00−3зюз2286100 0.0 102532
02:00−1юз3487100 0.0 102556
05:00−1юз348760 0.0 102465
08:00−5ююз368928 0.0 102472
11:00−4юз48777 0.0 1024157
14:00−3ююз5126918 0.0 1021279
17:00−6ю5137298 0.0 1020223
20:00−6ююз51473100 0.0 1019258
1 декабря, ср
ср123:00−6ююз71673100 0.0 1016289
02:00−3ююз71974100 0.0 1013383
05:00−2ююз51578100 0.1 1013454
08:00−1ю61494100 1.6 1011386
11:00−1ю61486100 1.7 1011359
14:000ю61481100 0.0 1009369
17:00−1ююв51380100 0.0 1008365
20:00−1ююв61488100 1.2 1005319